EW4748 Weather Reports


time (UTC)temp
C
wind
direction
speed
KPH
gust
KPH
rain 1hr
cm
rain 24hr
cm
rain mn
cm
humidity
%
barometer
mb
20260506202208 13 186 12.9 17.7 0.05 0.08 0.08 97 1007.9
20260506201701 13 249 9.7 14.5 0.05 0.08 0.08 96 1007.8
20260506201157 13 204 9.7 25.7 0.00 0.08 0.08 96 1007.8
20260506200654 13 261 6.4 11.3 0.00 0.08 0.08 95 1007.9
20260506200150 13 280 6.4 9.7 0.00 0.08 0.08 95 1008.0
20260506195647 13 205 8.0 16.1 0.00 0.08 0.08 95 1007.8
20260506195143 13 252 8.0 14.5 0.00 0.08 0.08 95 1008.0
20260506194641 14 206 8.0 9.7 0.00 0.08 0.08 95 1008.0
20260506194137 14 252 6.4 9.7 0.00 0.08 0.08 95 1007.9
20260506193635 14 187 8.0 22.5 0.00 0.08 0.08 95 1008.0
20260506193132 14 188 17.7 17.7 0.00 0.08 0.08 95 1008.0
20260506192629 14 183 14.5 19.3 0.00 0.08 0.08 95 1008.0
20260506192125 13 210 12.9 22.5 0.00 0.08 0.08 96 1008.2
20260506191622 14 224 6.4 11.3 0.00 0.08 0.08 96 1008.3
20260506191117 14 210 4.8 14.5 0.00 0.08 0.08 96 1008.3
20260506190615 14 237 4.8 9.7 0.00 0.08 0.08 96 1008.4
20260506190112 14 250 9.7 11.3 0.00 0.08 0.08 97 1008.5
20260506185609 14 194 8.0 14.5 0.00 0.08 0.08 97 1008.6
20260506185105 13 233 4.8 11.3 0.00 0.08 0.08 97 1008.7
20260506184603 13 201 4.8 11.3 0.00 0.08 0.08 97 1008.9
20260506184100 13 200 4.8 11.3 0.00 0.08 0.08 97 1008.8
20260506183556 13 242 4.8 11.3 0.00 0.08 0.08 98 1008.6
20260506183052 13 199 8.0 20.9 0.00 0.08 0.08 97 1008.8
20260506182550 13 215 11.3 16.1 0.05 0.08 0.08 97 1008.9
20260506182047 13 205 6.4 19.3 0.05 0.08 0.08 97 1008.9
20260506181545 13 245 6.4 17.7 0.05 0.05 0.05 97 1009.0
20260506181041 13 193 9.7 14.5 0.05 0.05 0.05 97 1009.0
20260506180538 13 250 3.2 14.5 0.13 0.05 0.05 97 1009.1
20260506180035 13 227 12.9 20.9 0.05 0.05 0.05 96 1009.2
20260506175531 13 234 3.2 11.3 0.05 0.03 0.03 96 1009.5
20260506175028 13 227 3.2 11.3 0.13 0.03 0.03 96 1009.3
20260506174527 13 169 8.0 17.7 0.05 0.03 0.03 96 1009.3
20260506174022 13 173 6.4 14.5 0.00 0.00 0.00 95 1009.7
20260506173520 13 197 11.3 12.9 0.05 0.00 0.00 95 1010.0
20260506173017 13 212 8.0 14.5 0.05 0.00 0.00 94 1009.9
20260506172514 14 178 3.2 16.1 0.00 0.00 0.00 94 1010.0
20260506172010 14 205 3.2 25.7 0.00 0.00 0.00 93 1010.0
20260506171507 14 199 11.3 19.3 0.00 0.00 0.00 92 1010.1
20260506171004 15 224 9.7 16.1 0.00 0.00 0.00 90 1010.3
20260506170501 15 268 8.0 9.7 0.00 0.00 0.00 90 1010.1
20260506165954 15 179 16.1 19.3 0.00 0.00 0.00 89 1010.1
20260506165452 15 263 4.8 11.3 0.00 0.00 0.00 89 1010.4
20260506164948 15 246 4.8 14.5 0.00 0.00 0.00 88 1010.0
20260506164445 15 235 6.4 16.1 0.00 0.00 0.00 87 1010.2
20260506163943 15 233 8.0 12.9 0.00 0.00 0.00 86 1010.3
20260506163438 15 250 11.3 17.7 0.00 0.00 0.00 86 1010.4
20260506162932 15 201 6.4 17.7 0.00 0.00 0.00 86 1010.3
20260506162430 15 229 6.4 17.7 0.00 0.00 0.00 86 1010.4
20260506161922 15 171 17.7 20.9 0.00 0.00 0.00 86 1010.6
20260506161420 15 205 3.2 17.7 0.00 0.00 0.00 86 1010.4
20260506160917 15 214 12.9 17.7 0.00 0.00 0.00 86 1010.5
20260506160414 15 229 3.2 17.7 0.00 0.00 0.00 85 1010.5
20260506155912 16 198 6.4 12.9 0.00 0.00 0.00 84 1010.6
20260506155409 16 255 6.4 16.1 0.00 0.00 0.00 84 1010.5
20260506153531 16 223 9.7 12.9 0.00 0.00 0.00 85 1011.0
20260506153028 15 245 8.0 24.1 0.00 0.00 0.00 86 1011.0
20260506152525 15 210 4.8 17.7 0.00 0.00 0.00 86 1011.2
20260506152023 15 291 9.7 16.1 0.00 0.00 0.00 86 1010.9
20260506151521 15 186 19.3 27.4 0.00 0.00 0.00 86 1010.8
20260506151018 15 289 8.0 17.7 0.00 0.00 0.00 86 1010.7
20260506150514 15 180 8.0 20.9 0.00 0.00 0.00 86 1010.7
20260506150011 15 220 4.8 12.9 0.00 0.00 0.00 86 1010.7
20260506145507 16 213 6.4 12.9 0.00 0.00 0.00 85 1010.7
20260506145005 16 248 11.3 17.7 0.00 0.00 0.00 85 1010.9
20260506144502 16 256 8.0 16.1 0.00 0.00 0.00 85 1011.0
20260506143959 16 239 4.8 16.1 0.00 0.00 0.00 85 1011.0
20260506143456 16 176 6.4 25.7 0.00 0.00 0.00 84 1011.1
20260506142955 16 228 9.7 12.9 0.00 0.00 0.00 84 1011.3
20260506142452 16 204 17.7 24.1 0.00 0.00 0.00 83 1011.0
20260506141950 16 232 4.8 20.9 0.00 0.00 0.00 83 1011.2
20260506141448 16 214 6.4 19.3 0.00 0.00 0.00 84 1011.1
20260506140946 16 183 11.3 25.7 0.00 0.00 0.00 85 1011.3
20260506140443 15 293 4.8 17.7 0.00 0.00 0.00 86 1011.4
20260506135939 15 200 14.5 19.3 0.00 0.00 0.00 86 1011.4
20260506135437 16 213 4.8 14.5 0.00 0.00 0.00 86 1011.4
20260506134933 16 203 9.7 22.5 0.00 0.00 0.00 85 1011.4
20260506134429 16 264 6.4 14.5 0.00 0.00 0.00 85 1011.3
20260506133926 15 243 9.7 22.5 0.00 0.00 0.00 87 1011.2
20260506133423 15 267 9.7 19.3 0.00 0.00 0.00 87 1011.2
20260506132920 15 230 8.0 16.1 0.00 0.00 0.00 87 1011.1
20260506132417 15 210 9.7 14.5 0.00 0.00 0.00 87 1011.3
20260506131914 15 221 8.0 24.1 0.00 0.00 0.00 87 1011.0
20260506131411 15 217 8.0 25.7 0.00 0.00 0.00 87 1011.2
20260506130908 15 208 14.5 16.1 0.00 0.00 0.00 87 1011.2
20260506130404 15 224 8.0 17.7 0.00 0.00 0.00 86 1010.9
20260506125902 15 197 11.3 22.5 0.00 0.00 0.00 86 1011.0
20260506125400 15 262 6.4 12.9 0.00 0.00 0.00 86 1011.3
20260506124858 16 213 8.0 19.3 0.00 0.00 0.00 86 1011.1
20260506124355 15 284 4.8 14.5 0.00 0.00 0.00 87 1011.4
20260506123853 15 192 16.1 24.1 0.00 0.00 0.00 86 1011.4
20260506123351 15 294 4.8 17.7 0.00 0.00 0.00 86 1011.5
20260506122848 15 201 11.3 17.7 0.00 0.00 0.00 86 1011.6
20260506122345 15 261 3.2 14.5 0.00 0.00 0.00 87 1011.4
20260506121843 15 172 9.7 33.8 0.00 0.00 0.00 87 1011.4
20260506121340 15 232 12.9 20.9 0.00 0.00 0.00 87 1011.6
20260506120837 15 187 6.4 20.9 0.00 0.00 0.00 88 1011.4
20260506120334 15 222 6.4 14.5 0.00 0.00 0.00 88 1011.4
20260506115832 15 216 6.4 17.7 0.00 0.00 0.00 88 1011.5
20260506115330 15 268 1.6 16.1 0.00 0.00 0.00 88 1011.3
20260506114828 15 181 8.0 17.7 0.00 0.00 0.00 88 1011.4
20260506114325 15 195 8.0 25.7 0.00 0.00 0.00 89 1011.3
20260506113824 15 175 8.0 16.1 0.00 0.00 0.00 89 1011.3
20260506113321 15 194 11.3 14.5 0.00 0.00 0.00 89 1011.1
20260506112817 15 189 11.3 12.9 0.00 0.00 0.00 90 1011.6
20260506112314 15 224 4.8 19.3 0.00 0.00 0.00 90 1011.3
20260506111812 14 186 6.4 16.1 0.00 0.00 0.00 90 1011.2
20260506111310 14 186 9.7 17.7 0.00 0.00 0.00 91 1011.5
20260506110807 14 222 8.0 17.7 0.00 0.00 0.00 91 1011.2
20260506110304 14 198 14.5 14.5 0.00 0.00 0.00 91 1011.4
20260506105800 14 179 6.4 14.5 0.00 0.00 0.00 91 1011.4
20260506105257 14 189 8.0 11.3 0.00 0.00 0.00 91 1011.3
20260506104755 13 201 4.8 11.3 0.00 0.00 0.00 92 1011.1
20260506104253 13 203 6.4 11.3 0.00 0.00 0.00 92 1011.4
20260506103750 13 213 3.2 17.7 0.00 0.00 0.00 92 1011.0
20260506103247 13 214 6.4 12.9 0.00 0.00 0.00 92 1011.3
20260506102744 13 205 4.8 11.3 0.00 0.00 0.00 93 1011.2
20260506102242 13 238 9.7 17.7 0.00 0.00 0.00 93 1011.3
20260506101739 13 218 3.2 14.5 0.00 0.00 0.00 93 1011.4
20260506101235 13 231 6.4 17.7 0.00 0.00 0.00 93 1011.2
20260506100734 13 195 11.3 12.9 0.00 0.00 0.00 93 1011.2
20260506100232 13 192 8.0 11.3 0.00 0.00 0.00 93 1011.1
20260506095730 13 213 4.8 14.5 0.00 0.00 0.00 93 1011.2
20260506095226 13 184 6.4 11.3 0.00 0.00 0.00 93 1011.0
20260506094723 13 169 12.9 14.5 0.00 0.00 0.00 93 1011.3
20260506094221 13 192 6.4 11.3 0.00 0.00 0.00 93 1011.0
20260506093720 13 197 6.4 16.1 0.00 0.00 0.00 93 1011.2
20260506093216 13 209 3.2 11.3 0.00 0.00 0.00 92 1011.0
20260506092714 13 236 6.4 11.3 0.00 0.00 0.00 93 1011.3
20260506092212 13 208 6.4 12.9 0.00 0.00 0.00 93 1011.1
20260506091709 13 221 6.4 14.5 0.00 0.00 0.00 93 1011.2
20260506091206 13 192 8.0 27.4 0.00 0.00 0.00 93 1011.3
20260506090704 13 212 4.8 11.3 0.00 0.00 0.00 92 1011.4
20260506090201 13 191 4.8 16.1 0.00 0.00 0.00 92 1011.3
20260506085658 13 190 6.4 27.4 0.00 0.00 0.00 92 1011.2
20260506085153 13 261 3.2 11.3 0.00 0.00 0.00 92 1011.4
20260506084650 13 180 9.7 14.5 0.00 0.00 0.00 92 1011.5
20260506084147 14 182 11.3 12.9 0.00 0.00 0.00 92 1011.4
20260506083644 14 162 11.3 16.1 0.00 0.00 0.00 91 1011.4
20260506083142 14 256 3.2 12.9 0.00 0.00 0.00 91 1011.6
20260506082639 14 211 4.8 11.3 0.00 0.00 0.00 91 1011.8
20260506082134 14 194 11.3 19.3 0.00 0.00 0.00 91 1011.5
20260506081632 14 199 16.1 20.9 0.00 0.00 0.00 91 1011.6
20260506081130 14 184 6.4 19.3 0.00 0.00 0.00 90 1011.8
20260506080627 14 225 6.4 16.1 0.00 0.00 0.00 90 1011.7
20260506080124 14 179 6.4 17.7 0.00 0.00 0.00 90 1011.5
20260506073108 14 238 11.3 17.7 0.00 0.00 0.00 89 1011.5
20260506072604 14 207 8.0 19.3 0.00 0.00 0.00 89 1011.9
20260506072102 14 190 3.2 22.5 0.00 0.00 0.00 89 1012.0
20260506071559 14 266 11.3 20.9 0.00 0.00 0.00 89 1012.0
20260506071057 14 214 8.0 16.1 0.00 0.00 0.00 89 1011.9
20260506070554 14 238 11.3 19.3 0.00 0.00 0.00 88 1011.7
20260506062028 14 182 9.7 14.5 0.00 0.00 0.00 87 1011.6
20260506061523 15 265 4.8 14.5 0.00 0.00 0.00 87 1011.5
20260506061021 15 262 3.2 12.9 0.00 0.00 0.00 87 1011.9
20260506060520 15 189 9.7 20.9 0.00 0.00 0.00 87 1011.9
20260506050948 15 254 4.8 16.1 0.00 0.00 0.00 85 1012.1
20260506050446 15 239 9.7 20.9 0.00 0.00 0.00 85 1012.1
20260506044936 15 255 8.0 20.9 0.00 0.00 0.00 85 1012.3
20260506044435 15 212 6.4 16.1 0.00 0.00 0.00 85 1012.1
20260506043931 15 186 12.9 20.9 0.00 0.00 0.00 84 1012.2
20260506043429 15 201 9.7 17.7 0.00 0.00 0.00 85 1012.1
20260506042926 15 224 6.4 19.3 0.00 0.00 0.00 85 1012.2
20260506042426 15 239 8.0 17.7 0.00 0.00 0.00 84 1012.1
20260506041923 15 161 6.4 12.9 0.00 0.00 0.00 84 1012.1
20260506041421 15 183 14.5 16.1 0.00 0.00 0.00 84 1012.3
20260506040918 15 250 4.8 14.5 0.00 0.00 0.00 85 1012.3
20260506040415 15 196 19.3 19.3 0.00 0.00 0.00 85 1012.2
20260506035911 15 315 4.8 17.7 0.00 0.00 0.00 84 1012.3
20260506035409 15 214 11.3 16.1 0.00 0.00 0.00 85 1012.3
20260506034905 15 193 6.4 16.1 0.00 0.00 0.00 84 1012.1
20260506034403 15 201 9.7 14.5 0.00 0.00 0.00 84 1012.1
20260506033859 15 183 12.9 24.1 0.00 0.00 0.00 84 1012.4
20260506033357 15 183 12.9 17.7 0.00 0.00 0.00 84 1012.1
20260506032853 15 209 9.7 20.9 0.00 0.00 0.00 85 1012.0
20260506032350 14 201 9.7 20.9 0.00 0.00 0.00 85 1012.1
20260506031847 14 180 20.9 20.9 0.00 0.00 0.00 85 1012.2
20260506031344 14 207 8.0 27.4 0.00 0.00 0.00 85 1012.1
20260506030842 15 189 8.0 17.7 0.00 0.00 0.00 85 1012.2
20260506030340 15 179 4.8 16.1 0.00 0.00 0.00 84 1012.2
20260506025837 15 187 8.0 24.1 0.00 0.00 0.00 85 1012.2
20260506025333 15 178 11.3 20.9 0.00 0.00 0.00 84 1012.2
20260506024830 15 256 9.7 12.9 0.00 0.00 0.00 84 1012.3
20260506024327 15 230 9.7 11.3 0.00 0.00 0.00 84 1012.2
20260506023823 15 212 11.3 20.9 0.00 0.00 0.00 84 1012.4
20260506023320 15 272 4.8 24.1 0.00 0.00 0.00 83 1012.2
20260506022816 15 176 6.4 16.1 0.00 0.00 0.00 83 1012.3
20260506022314 15 220 8.0 33.8 0.00 0.00 0.00 83 1012.2
20260506021813 15 249 11.3 19.3 0.00 0.00 0.00 83 1012.3
20260506021309 15 200 8.0 17.7 0.00 0.00 0.00 83 1012.4
20260506020806 15 178 6.4 14.5 0.00 0.00 0.00 83 1012.3
20260506020304 15 203 11.3 22.5 0.00 0.00 0.00 82 1012.1
20260506015801 15 230 3.2 14.5 0.00 0.00 0.00 82 1011.9
20260506015258 15 171 11.3 16.1 0.00 0.00 0.00 81 1012.1
20260506014755 15 204 8.0 20.9 0.00 0.00 0.00 81 1012.1
20260506014252 15 200 11.3 25.7 0.00 0.00 0.00 80 1012.0
20260506013749 15 181 6.4 27.4 0.00 0.00 0.00 80 1011.9
20260506013246 15 182 9.7 17.7 0.00 0.00 0.00 79 1012.0
20260506012742 15 240 6.4 19.3 0.00 0.00 0.00 78 1011.9
20260506012239 16 278 4.8 17.7 0.00 0.00 0.00 77 1011.7
20260506011737 16 243 9.7 17.7 0.00 0.00 0.00 77 1011.8
20260506011233 16 238 8.0 17.7 0.00 0.00 0.00 77 1011.6
20260506010731 16 247 12.9 20.9 0.00 0.00 0.00 77 1011.5
20260506010228 16 213 8.0 17.7 0.00 0.00 0.00 77 1011.6
20260506005725 16 235 3.2 20.9 0.00 0.00 0.00 77 1011.7
20260506005222 16 272 4.8 17.7 0.00 0.00 0.00 76 1011.4
20260506004718 16 232 9.7 12.9 0.00 0.00 0.00 75 1011.2
20260506004216 16 277 4.8 12.9 0.00 0.00 0.00 75 1011.2
20260506003711 16 288 6.4 20.9 0.00 0.00 0.00 75 1011.2
20260506003208 16 230 4.8 24.1 0.00 0.00 0.00 75 1011.0
20260506002704 16 192 12.9 24.1 0.00 0.00 0.00 75 1011.2
20260506002200 16 175 8.0 25.7 0.00 0.00 0.00 76 1011.1
20260506001656 16 234 8.0 25.7 0.00 0.00 0.00 76 1010.9
20260506001154 16 164 6.4 14.5 0.00 0.00 0.00 77 1011.1
20260506000651 16 166 6.4 22.5 0.00 0.00 0.00 77 1011.0
20260506000148 16 195 16.1 20.9 0.00 0.00 0.00 77 1010.6
20260505235646 16 231 8.0 17.7 0.00 0.00 0.00 77 1010.7
20260505235143 16 217 1.6 11.3 0.00 0.00 0.00 77 1010.9
20260505234640 16 181 8.0 20.9 0.00 0.00 0.00 77 1010.6
20260505234137 16 276 8.0 19.3 0.00 0.00 0.00 78 1010.6
20260505233634 16 197 14.5 19.3 0.00 0.00 0.00 78 1010.6
20260505233131 16 256 9.7 22.5 0.00 0.00 0.00 77 1010.4
20260505232629 16 193 6.4 17.7 0.00 0.00 0.00 77 1010.1
20260505232126 16 203 3.2 17.7 0.00 0.00 0.00 76 1010.1
20260505231623 16 223 9.7 17.7 0.00 0.00 0.00 76 1010.1
20260505231122 16 237 6.4 17.7 0.00 0.00 0.00 76 1010.0
20260505230619 16 193 3.2 17.7 0.00 0.00 0.00 76 1010.3
20260505230115 16 249 9.7 19.3 0.00 0.00 0.00 76 1010.3
20260505225612 16 246 4.8 12.9 0.00 0.00 0.00 76 1010.1
20260505225108 16 236 0.0 20.9 0.00 0.00 0.00 76 1010.2
20260505224605 16 271 4.8 22.5 0.00 0.00 0.00 75 1010.1
20260505224102 16 236 12.9 20.9 0.00 0.00 0.00 75 1010.0
20260505223559 16 201 12.9 17.7 0.00 0.00 0.00 75 1009.9
20260505223055 16 226 8.0 16.1 0.00 0.00 0.00 74 1010.0
20260505222552 16 290 11.3 14.5 0.00 0.00 0.00 75 1010.1
20260505222048 16 242 6.4 16.1 0.00 0.00 0.00 75 1010.0
20260505221546 16 173 16.1 24.1 0.00 0.00 0.00 74 1009.9
20260505221041 16 180 8.0 24.1 0.00 0.00 0.00 74 1010.0
20260505220539 17 212 12.9 20.9 0.00 0.00 0.00 73 1009.8
20260505220037 17 192 11.3 16.1 0.00 0.00 0.00 73 1010.0
20260505215535 17 217 8.0 17.7 0.00 0.00 0.00 71 1009.7
20260505215032 17 200 19.3 24.1 0.00 0.00 0.00 71 1009.6
20260505214530 17 269 6.4 14.5 0.00 0.00 0.00 71 1009.6
20260505214027 17 243 12.9 14.5 0.00 0.00 0.00 71 1009.4
20260505213525 17 184 16.1 19.3 0.00 0.00 0.00 70 1009.6
20260505213021 17 282 6.4 17.7 0.00 0.00 0.00 70 1009.7
20260505212517 18 241 6.4 22.5 0.00 0.00 0.00 70 1009.5
20260505212014 18 202 8.0 16.1 0.00 0.00 0.00 70 1009.7
20260505211512 17 296 8.0 17.7 0.00 0.00 0.00 70 1009.5
20260505211008 17 203 9.7 16.1 0.00 0.00 0.00 70 1009.5
20260505210505 17 180 14.5 22.5 0.00 0.00 0.00 70 1009.4
20260505210002 17 213 11.3 20.9 0.00 0.00 0.00 70 1009.3
20260505205500 17 226 8.0 20.9 0.00 0.00 0.00 70 1009.6
20260505204956 18 209 3.2 27.4 0.00 0.00 0.00 70 1009.6
20260505204455 18 179 12.9 19.3 0.00 0.00 0.00 69 1009.5
20260505203951 18 204 8.0 17.7 0.00 0.00 0.00 69 1009.4
20260505203448 18 195 12.9 20.9 0.00 0.00 0.00 68 1009.5
20260505202944 18 213 3.2 20.9 0.00 0.00 0.00 69 1009.4
20260505202441 18 215 4.8 12.9 0.00 0.00 0.00 70 1009.7